Temp
11 10 10 10 11 10 9 9 9 8 8 8 8 8 8 8 8 7 7 6 6 5 5 5 5 5 5 4 3 3 1 1 1 0 1 1 1 1 1 1 1 1 1
10 10 10 11 10 10 9 8 8 8 8 8 8 8 8 8 8 7 6 6 5 5 5 4 5 5 4 4 3 2 2 2 2 1 1 0 -0 0 1 1 1 1 1
10 10 10 11 10 10 9 9 8 8 8 8 8 8 8 8 7 7 6 5 5 5 4 4 4 4 4 3 3 2 2 1 0 0 0 0 1 1 1 1 1 1 1
11 11 11 11 10 10 9 9 8 8 8 8 8 8 8 7 7 6 5 5 4 4 4 4 4 3 3 3 3 2 2 1 1 1 1 0 0 0 0 0 0 -0 0
11 11 10 10 9 9 9 9 8 8 8 8 8 8 8 7 7 5 5 4 4 4 4 3 3 3 3 3 3 2 2 2 1 1 0 0 0 0 0 0 0 -1 -2
11 11 11 10 9 9 9 9 8 8 8 8 8 8 7 6 5 4 4 4 4 4 3 3 3 2 2 2 2 2 1 1 1 0 -0 -0 -0 -0 -0 -0 -0 -0 -1
11 11 11 10 9 9 9 9 8 8 8 8 8 7 6 6 5 4 4 4 4 3 3 2 2 2 2 1 1 1 1 1 0 -0 -0 -1 -1 -1 -1 -1 -1 -1 -1
10 10 10 10 9 9 9 8 8 8 8 8 7 7 6 5 5 4 4 3 3 2 2 2 2 1 1 1 1 0 -0 -1 -1 -1 -2 -2 -2 -2 -2 -2 -2 -2 -2
11 10 10 10 9 9 8 8 8 8 7 7 7 6 6 5 4 4 3 3 2 2 2 2 2 1 1 0 0 -0 -1 -2 -2 -2 -2 -3 -3 -3 -3 -3 -2 -2 -2
10 10 10 9 9 8 8 8 7 7 7 6 6 6 5 4 4 3 3 2 2 1 2 2 1 1 0 -1 -1 -2 -2 -3 -3 -3 -3 -3 -3 -3 -3 -3 -3 -3 -3
11 10 9 8 8 7 7 7 7 6 6 6 5 5 4 3 3 2 2 1 1 1 1 1 0 -0 -1 -2 -2 -3 -3 -3 -3 -3 -4 -4 -4 -4 -4 -4 -4 -4 -4
10 10 9 8 7 7 7 7 6 6 6 5 4 4 3 2 2 1 1 1 1 1 1 0 -0 -1 -2 -2 -3 -3 -3 -3 -4 -4 -4 -4 -4 -4 -4 -5 -5 -5 -6
9 8 8 8 7 7 7 6 6 5 5 4 4 3 2 2 1 1 0 -0 -0 -0 -0 -0 -1 -2 -2 -3 -3 -3 -4 -4 -4 -4 -5 -5 -5 -5 -5 -5 -6 -6 -6
8 8 7 7 7 6 6 6 5 5 4 4 3 3 2 1 1 0 -0 -1 -1 -1 -1 -2 -2 -3 -3 -4 -4 -4 -5 -5 -5 -5 -5 -5 -5 -6 -6 -6 -6 -7 -7
7 7 7 7 7 6 6 5 5 4 4 3 3 2 2 2 1 -0 -0 -1 -2 -3 -3 -3 -4 -4 -4 -5 -5 -5 -5 -5 -5 -5 -6 -6 -6 -6 -6 -6 -6 -7 -7
6 6 6 6 6 6 6 5 4 4 3 3 2 2 2 1 1 -0 -1 -2 -2 -3 -5 -5 -6 -5 -5 -5 -5 -5 -6 -6 -6 -6 -6 -6 -6 -6 -6 -7 -7 -7 -8
6 6 6 5 5 5 5 5 4 3 2 1 1 0 0 -0 -1 -3 -4 -5 -5 -5 -6 -6 -6 -6 -6 -6 -6 -6 -6 -6 -6 -6 -6 -6 -6 -7 -7 -7 -8 -8 -8
6 5 5 5 5 5 4 3 3 2 2 1 1 -0 -1 -2 -4 -5 -5 -6 -5 -6 -6 -6 -6 -7 -6 -6 -6 -6 -6 -6 -7 -7 -7 -7 -7 -7 -8 -8 -8 -9 -9
5 6 5 5 4 4 3 3 2 2 1 0 -1 -1 -2 -3 -5 -5 -3 -5 -6 -7 -7 -7 -7 -7 -7 -6 -6 -6 -6 -7 -7 -7 -7 -7 -8 -8 -8 -9 -9 -9 -10
5 5 5 4 4 4 3 2 1 1 0 -0 -1 -2 -3 -4 -3 -4 -5 -6 -7 -7 -7 -7 -7 -7 -7 -7 -7 -7 -7 -8 -8 -8 -8 -8 -8 -9 -9 -9 -10 -10 -11
5 5 4 4 3 3 3 2 2 1 -0 -1 -2 -3 -3 -4 -5 -6 -6 -6 -7 -7 -7 -7 -7 -7 -8 -8 -8 -8 -8 -8 -8 -8 -9 -9 -9 -9 -10 -10 -11 -11 -11
5 4 4 4 3 2 2 1 1 -1 -2 -2 -3 -4 -4 -5 -5 -6 -6 -7 -7 -7 -8 -8 -8 -8 -8 -8 -8 -9 -9 -9 -9 -9 -9 -10 -9 -10 -10 -10 -11 -11 -12
4 4 3 2 1 1 0 -0 -1 -2 -2 -3 -3 -4 -5 -6 -6 -7 -7 -7 -8 -8 -8 -8 -9 -9 -9 -9 -10 -9 -9 -10 -10 -10 -10 -10 -10 -10 -10 -11 -11 -12 -12
3 2 1 1 0 -0 -1 -1 -2 -2 -2 -4 -4 -5 -6 -6 -7 -7 -8 -8 -8 -9 -9 -9 -9 -9 -9 -10 -10 -10 -10 -10 -10 -10 -10 -10 -10 -10 -11 -12 -12 -12 -13
1 1 -0 -1 -1 -1 -2 -2 -2 -3 -4 -5 -6 -7 -7 -7 -8 -8 -8 -9 -10 -10 -10 -9 -9 -9 -10 -10 -10 -10 -11 -11 -11 -11 -11 -11 -11 -11 -12 -12 -12 -12 -13
-1 -1 -1 -2 -2 -2 -3 -3 -4 -5 -6 -6 -7 -7 -7 -8 -8 -9 -9 -10 -10 -11 -11 -11 -10 -11 -11 -11 -11 -11 -11 -11 -11 -11 -11 -11 -12 -12 -12 -12 -13 -13 -13
Height
3149 3147 3149 3152 3150 3147 3148 3150 3152 3155 3156 3156 3157 3157 3157 3157 3157 3157 3157 3157 3157 3156 3155 3153 3151 3149 3146 3145 3144 3144 3143 3144 3143 3143 3142 3140 3139 3138 3138 3138 3137 3136 3136
3144 3144 3145 3146 3146 3145 3144 3145 3147 3150 3152 3153 3154 3154 3153 3154 3154 3154 3154 3154 3153 3151 3150 3149 3148 3146 3144 3141 3140 3140 3139 3139 3138 3137 3135 3134 3135 3134 3133 3132 3131 3131 3130
3139 3140 3140 3140 3141 3140 3140 3141 3143 3145 3147 3148 3149 3148 3149 3150 3150 3150 3149 3149 3148 3148 3147 3146 3146 3144 3142 3140 3139 3138 3138 3136 3135 3134 3134 3132 3130 3129 3128 3127 3126 3126 3124
3131 3133 3134 3136 3136 3135 3136 3138 3139 3140 3142 3143 3143 3144 3144 3145 3145 3145 3145 3145 3145 3145 3144 3143 3142 3141 3139 3138 3136 3134 3133 3132 3130 3130 3128 3126 3124 3121 3119 3117 3118 3117 3116
3125 3128 3130 3131 3131 3131 3131 3132 3134 3136 3138 3139 3139 3139 3140 3140 3140 3141 3141 3141 3141 3141 3141 3140 3138 3137 3135 3134 3133 3131 3129 3127 3126 3125 3123 3121 3119 3116 3114 3111 3110 3108 3108
3120 3123 3124 3126 3126 3127 3128 3129 3130 3132 3134 3135 3136 3136 3136 3137 3137 3137 3137 3138 3138 3138 3137 3136 3135 3134 3132 3131 3129 3127 3125 3123 3121 3119 3117 3115 3113 3111 3109 3106 3104 3103 3102
3115 3117 3118 3121 3121 3123 3124 3125 3127 3129 3130 3131 3132 3132 3132 3132 3133 3133 3134 3135 3135 3135 3134 3132 3131 3130 3128 3126 3124 3123 3121 3119 3116 3114 3112 3109 3107 3105 3103 3100 3098 3097 3097
3109 3111 3113 3115 3116 3117 3119 3121 3123 3125 3127 3127 3127 3128 3128 3129 3129 3130 3131 3131 3130 3130 3130 3128 3126 3125 3123 3121 3120 3118 3116 3113 3111 3109 3107 3105 3101 3099 3097 3095 3093 3090 3090
3102 3105 3108 3109 3111 3112 3114 3116 3118 3121 3122 3123 3123 3123 3125 3126 3126 3125 3126 3126 3125 3125 3124 3123 3121 3119 3118 3116 3114 3113 3111 3108 3106 3104 3103 3100 3097 3094 3091 3089 3087 3085 3082
3097 3100 3103 3104 3106 3107 3108 3111 3114 3116 3118 3118 3118 3118 3119 3121 3121 3121 3120 3119 3120 3119 3117 3116 3114 3112 3111 3109 3107 3104 3102 3101 3099 3098 3096 3094 3091 3089 3085 3082 3079 3077 3075
3090 3093 3097 3098 3100 3101 3103 3106 3109 3111 3112 3112 3113 3114 3113 3113 3114 3115 3114 3112 3111 3110 3108 3106 3104 3102 3102 3101 3100 3099 3096 3093 3090 3088 3087 3085 3083 3081 3077 3074 3071 3069 3067
3083 3087 3091 3093 3094 3095 3098 3101 3103 3105 3107 3108 3108 3109 3108 3107 3107 3107 3106 3104 3104 3102 3101 3100 3097 3095 3094 3093 3092 3091 3090 3087 3085 3082 3078 3075 3073 3069 3069 3066 3063 3061 3059
3077 3081 3085 3087 3088 3090 3092 3095 3097 3099 3101 3101 3101 3101 3102 3102 3101 3101 3101 3099 3098 3096 3094 3092 3089 3088 3087 3086 3084 3083 3080 3078 3076 3072 3069 3067 3064 3062 3059 3056 3055 3053 3050
3073 3076 3078 3080 3083 3085 3087 3089 3091 3092 3093 3094 3094 3094 3096 3096 3094 3092 3091 3090 3089 3088 3086 3084 3083 3081 3079 3078 3077 3076 3073 3070 3068 3065 3062 3059 3056 3053 3050 3047 3045 3044 3042
3066 3069 3071 3074 3075 3077 3081 3084 3085 3085 3085 3085 3086 3086 3086 3085 3084 3084 3083 3081 3080 3078 3079 3078 3076 3073 3071 3070 3069 3067 3065 3063 3060 3057 3053 3050 3047 3045 3042 3039 3037 3035 3034
3060 3063 3065 3067 3068 3071 3074 3076 3078 3079 3079 3079 3079 3080 3080 3079 3078 3078 3076 3073 3069 3067 3067 3065 3066 3066 3062 3063 3061 3058 3056 3053 3051 3049 3045 3042 3039 3036 3033 3030 3028 3027 3025
3053 3055 3058 3061 3063 3065 3066 3067 3070 3069 3070 3070 3070 3071 3072 3071 3069 3067 3065 3063 3058 3055 3056 3055 3055 3055 3054 3053 3052 3048 3046 3044 3040 3038 3035 3032 3029 3027 3024 3022 3020 3018 3016
3046 3048 3051 3053 3055 3056 3059 3061 3062 3063 3063 3063 3064 3064 3062 3060 3057 3054 3048 3049 3049 3052 3050 3049 3047 3048 3047 3045 3043 3039 3036 3034 3030 3028 3025 3022 3019 3017 3015 3012 3010 3008 3006
3040 3042 3044 3045 3047 3050 3053 3055 3056 3055 3056 3056 3055 3052 3048 3047 3046 3045 3045 3043 3045 3043 3040 3040 3040 3039 3037 3035 3033 3030 3026 3024 3021 3019 3016 3013 3011 3009 3006 3003 3000 2998 2995
3033 3035 3037 3039 3042 3044 3045 3047 3047 3048 3047 3046 3045 3042 3038 3039 3041 3038 3037 3039 3039 3036 3034 3034 3033 3032 3029 3025 3023 3020 3017 3014 3012 3010 3007 3004 3002 3000 2997 2994 2992 2989 2986
3026 3029 3031 3033 3035 3036 3037 3038 3038 3038 3038 3038 3038 3038 3034 3034 3034 3033 3031 3031 3032 3030 3029 3027 3024 3021 3020 3016 3013 3010 3007 3005 3003 3001 2999 2996 2993 2991 2989 2986 2984 2982 2978
3019 3021 3024 3026 3027 3028 3028 3030 3031 3032 3033 3034 3031 3031 3030 3028 3028 3027 3026 3026 3025 3023 3021 3019 3017 3013 3010 3006 3003 3001 2999 2997 2995 2993 2991 2988 2986 2985 2983 2981 2978 2977 2974
3011 3013 3015 3017 3019 3020 3022 3024 3025 3026 3025 3024 3024 3024 3023 3022 3021 3021 3021 3020 3018 3015 3013 3011 3009 3006 3001 2997 2995 2992 2991 2990 2988 2987 2985 2983 2982 2980 2978 2976 2974 2971 2969
3003 3005 3007 3009 3011 3012 3014 3016 3016 3016 3016 3016 3015 3015 3015 3015 3016 3015 3014 3012 3010 3009 3007 3004 3000 2997 2994 2991 2988 2986 2985 2983 2982 2981 2981 2980 2978 2977 2974 2972 2970 2968 2966
2995 2997 2998 3001 3004 3006 3006 3008 3008 3009 3009 3009 3009 3009 3010 3010 3009 3008 3007 3005 3002 3000 2998 2995 2992 2989 2986 2985 2982 2981 2980 2979 2979 2979 2978 2977 2975 2973 2971 2969 2967 2965 2963
2988 2989 2992 2993 2996 2999 3001 3001 3000 3001 3001 3002 3003 3003 3003 3003 3001 3000 2999 2996 2994 2991 2988 2985 2983 2982 2980 2979 2977 2977 2976 2976 2977 2977 2976 2974 2972 2970 2969 2967 2965 2963 2961
Wind_Speed
33 34 29 28 28 27 25 25 22 18 16 17 17 16 17 19 19 19 18 18 18 17 17 17 19 19 17 16 10 10 6 7 14 14 17 19 23 25 26 27 26 28 30
35 35 32 33 29 23 20 22 22 20 19 20 21 21 22 22 22 21 20 18 17 17 16 17 18 17 15 12 11 8 7 9 12 14 17 17 21 23 27 31 33 29 24
34 35 35 33 25 19 19 20 22 22 23 24 24 25 24 23 22 21 19 17 18 17 17 17 15 12 11 12 13 12 13 13 14 16 18 21 21 20 19 20 23 25 26
36 35 33 33 23 18 20 21 21 20 20 21 21 22 21 20 20 20 18 17 18 16 15 13 14 12 12 14 16 18 18 19 21 22 23 23 25 26 29 29 28 25 25
38 34 35 34 24 19 19 21 21 20 21 21 21 21 19 19 18 17 18 17 16 15 14 14 14 15 16 18 19 21 23 24 24 21 22 23 24 24 27 30 29 29 29
33 35 37 31 24 20 19 19 19 18 19 19 19 18 16 16 16 16 17 16 15 15 15 16 18 18 19 20 21 21 23 25 25 25 22 21 22 23 25 27 28 29 30
33 35 35 27 22 21 22 20 19 19 19 18 16 14 13 14 14 16 17 15 16 16 18 20 22 22 22 22 22 22 22 23 24 24 23 22 23 22 23 25 27 28 27
38 38 33 24 18 23 22 21 20 19 16 15 15 12 12 14 17 18 18 17 17 20 21 22 24 24 23 23 22 21 22 21 21 20 20 21 22 22 24 25 26 27 26
33 34 29 23 18 24 23 22 21 18 16 16 15 13 15 17 19 19 18 20 22 22 23 23 24 24 23 23 23 23 23 21 21 21 22 22 23 24 25 26 28 30 30
31 32 31 28 22 26 25 24 21 18 17 15 14 15 18 18 19 19 21 22 24 25 25 24 25 24 23 22 22 23 25 25 24 25 26 26 26 27 26 27 28 30 31
29 27 27 27 26 28 27 24 20 17 15 16 16 18 18 20 20 20 22 24 26 27 26 26 27 27 27 26 26 26 28 29 30 30 30 32 32 28 30 30 31 31 30
27 30 26 23 24 30 30 24 19 17 16 18 19 18 18 21 21 22 24 25 25 26 27 30 31 31 31 30 31 31 31 32 33 35 36 32 32 34 31 31 32 32 31
35 34 27 24 23 32 30 24 21 18 19 20 21 21 22 22 24 26 26 26 25 26 30 32 33 33 34 34 34 34 33 34 37 36 33 34 36 37 39 37 34 33 35
34 31 25 22 23 28 30 26 24 22 23 23 25 28 27 28 30 31 32 30 28 29 31 32 30 31 32 32 32 33 35 36 38 36 38 39 39 40 39 38 36 33 33
26 23 22 23 26 25 30 34 29 28 27 27 30 32 34 37 37 36 36 36 31 28 28 29 29 31 30 31 32 33 35 37 38 40 41 40 40 39 38 37 36 34 34
24 23 23 24 26 25 27 29 30 31 31 33 36 36 37 40 41 38 36 36 38 34 30 30 29 30 29 30 35 35 36 41 41 41 39 39 39 38 36 36 35 35 34
26 27 30 29 28 26 31 34 32 34 35 38 40 40 41 43 40 36 32 27 32 25 23 25 29 31 36 33 36 39 42 40 40 41 40 39 39 38 36 36 34 33 33
30 28 25 26 35 34 35 37 39 38 41 42 42 43 40 38 36 32 35 30 32 31 33 32 29 31 34 38 41 38 38 39 39 40 39 37 36 35 34 34 33 31 30
34 34 27 23 30 32 35 40 42 47 43 42 45 47 49 49 39 37 41 28 24 21 20 26 35 36 36 35 36 38 38 39 37 36 34 33 32 32 32 32 32 32 32
26 27 24 27 30 32 34 36 44 47 47 49 51 50 47 39 46 39 21 18 20 23 25 26 29 32 35 36 37 38 38 36 33 32 30 30 29 29 30 31 30 30 30
23 21 22 23 24 27 31 35 41 44 45 49 53 49 45 40 31 22 20 17 17 18 21 26 29 32 33 35 35 35 33 30 28 29 28 27 26 26 27 25 24 25 24
27 26 24 24 25 26 27 31 35 38 44 45 35 32 28 22 22 19 16 16 19 22 25 28 28 30 33 33 32 30 27 25 25 25 24 23 23 21 19 19 19 19 18
26 24 24 24 22 22 27 30 29 30 28 26 22 22 20 18 18 18 21 24 25 27 30 32 32 35 33 29 26 25 24 22 20 20 19 17 15 15 15 15 15 14 15
24 26 27 26 24 25 26 27 27 26 24 22 20 18 17 18 20 23 25 26 26 28 34 33 33 32 28 24 23 21 20 18 17 14 12 12 12 12 13 13 13 13 11
23 22 19 21 23 25 24 24 23 21 19 16 15 16 19 22 25 28 28 31 33 34 31 29 29 25 23 22 21 19 17 13 10 10 10 11 11 11 12 12 12 12 10
20 19 19 20 20 21 23 22 18 14 14 17 18 20 23 27 29 29 31 34 32 28 28 27 23 21 18 18 18 14 10 8 8 9 10 10 10 10 11 11 11 11 9
Wind_Direction
272 273 276 291 289 264 257 257 262 264 260 259 261 265 265 265 267 268 268 271 280 286 287 288 290 293 299 303 305 317 287 270 277 277 278 273 271 276 279 281 283 291 293
263 264 276 290 283 262 251 245 250 253 252 254 256 261 262 264 268 264 263 268 274 276 275 278 283 289 301 305 309 299 278 279 289 289 288 288 282 280 280 279 282 290 286
261 266 276 288 277 261 249 242 242 246 251 254 259 261 263 265 264 260 260 263 264 264 270 275 276 284 299 309 312 305 295 295 293 292 292 294 299 299 292 290 292 292 291
264 266 276 283 280 263 245 237 234 237 244 248 251 256 258 258 253 251 255 257 255 260 270 273 275 282 295 300 302 303 305 304 303 304 299 294 294 297 299 301 298 288 289
261 267 271 277 278 257 244 236 233 234 238 244 249 255 256 253 254 252 252 250 253 261 264 266 268 275 281 286 293 295 297 301 298 298 299 298 298 297 297 298 301 299 294
259 261 266 275 269 246 237 229 229 229 235 245 249 250 250 248 248 248 247 252 260 265 264 269 273 275 278 284 284 282 284 290 292 296 295 299 299 301 303 301 299 296 297
259 263 270 273 255 244 236 230 225 230 237 242 247 246 244 247 246 244 253 261 267 266 269 273 277 280 284 284 283 282 281 279 282 289 295 300 300 303 300 299 302 303 302
255 258 264 258 250 243 236 229 229 232 242 250 250 247 254 249 244 252 264 269 262 264 273 279 280 282 282 283 284 285 285 286 291 295 299 300 302 305 304 302 300 297 295
249 254 252 254 266 244 238 230 233 239 248 252 257 261 256 250 255 262 263 263 266 272 278 276 278 282 284 284 285 288 291 292 295 302 306 306 303 301 298 298 297 294 294
246 243 244 252 256 242 233 231 236 246 251 257 261 263 263 260 259 264 267 267 271 281 279 279 278 280 282 285 288 292 295 299 301 303 302 300 297 295 296 297 295 293 291
250 251 249 250 244 236 231 233 240 249 255 260 262 258 262 263 267 273 273 276 283 288 289 289 289 289 289 290 292 293 296 299 300 300 301 301 296 292 292 292 291 288 282
252 253 245 253 255 237 231 234 243 250 255 259 258 258 258 256 264 273 273 281 289 290 289 287 285 284 286 289 290 291 293 295 294 298 300 298 299 297 290 289 288 284 280
244 242 246 256 251 236 232 238 246 254 256 257 267 265 258 257 263 265 267 273 275 276 276 276 277 281 282 283 286 290 291 290 296 297 297 296 293 294 295 293 289 284 284
244 250 257 263 260 240 235 239 250 260 263 263 264 265 263 264 262 261 264 275 281 288 287 281 278 277 278 279 281 284 287 293 295 296 293 292 293 292 290 288 289 286 285
235 244 253 255 261 255 241 238 248 259 268 268 267 266 269 271 270 267 268 273 276 282 281 280 276 278 273 275 280 283 286 290 291 289 289 289 290 289 288 288 290 288 285
235 244 249 252 254 259 261 258 262 265 263 265 269 268 266 269 272 273 272 271 271 268 262 265 284 273 276 288 285 284 288 287 285 286 287 287 288 288 289 288 288 288 289
240 241 246 252 256 268 265 263 266 264 258 260 260 259 258 257 258 258 258 261 269 276 275 270 266 271 276 282 282 285 285 284 286 287 287 288 289 290 289 289 289 289 288
236 238 254 254 246 259 255 257 254 256 258 260 258 254 248 246 248 244 243 264 272 274 287 281 283 282 281 281 282 281 282 283 284 286 287 288 288 290 291 291 292 291 290
242 250 256 252 244 249 255 251 251 255 252 254 247 238 242 248 246 256 288 299 288 281 282 281 284 285 284 282 282 282 281 282 285 287 290 291 291 292 295 295 295 294 291
230 243 252 245 248 254 259 256 250 246 259 250 244 245 246 251 280 295 308 281 278 286 286 286 285 284 285 285 284 283 285 288 289 289 289 291 294 295 296 297 298 297 295
244 240 234 243 250 256 257 257 255 254 245 241 253 261 271 293 301 282 274 278 283 291 300 301 296 293 290 288 287 287 287 289 290 291 292 293 295 296 297 301 304 301 298
251 245 252 260 261 259 260 256 250 247 247 259 276 289 286 272 266 272 274 276 286 298 309 311 307 304 298 293 291 289 289 291 292 293 294 297 298 298 302 305 308 306 304
243 261 266 254 251 251 245 244 247 255 271 280 272 274 279 277 270 273 284 289 293 299 303 303 303 306 306 298 292 291 292 295 296 296 296 295 296 301 304 308 308 311 314
264 258 255 257 254 254 252 255 262 269 270 274 279 281 282 276 277 285 286 285 283 287 297 295 297 300 299 298 296 296 297 299 299 299 293 296 300 306 312 311 309 309 311
258 256 252 252 251 248 251 254 258 264 271 272 274 278 275 272 278 287 287 285 287 299 293 290 294 297 295 296 296 297 296 295 298 296 297 300 308 318 318 311 311 310 311
249 243 242 240 244 251 257 264 269 267 264 267 273 273 274 281 287 290 291 296 296 291 291 292 290 289 298 297 295 291 288 293 293 296 296 304 313 317 315 315 316 317 315